Location: Newark
(44.6028°N, 124.0883°W)
Time: 06:09:31
(UTC+00:00)

N. Korean satellite - Pass Details

Date: 27 October 2020
Orbit: 453 x 504 km, 97.2° (Epoch: 30 November)

Event Time Altitude Azimuth Distance (km) Brightness Sun altitude
Rises 01:50:44 0° 202° (SSW) 2,554 10.7 -7.3°
Reaches altitude 10° 01:53:18 10° 221° (SW) 1,668 10.1 -7.8°
Maximum altitude 01:55:50 18° 266° (W) 1,235 10.0 -8.2°
Drops below altitude 10° 01:58:23 10° 312° (NW) 1,657 9.8 -8.7°
Sets 02:00:55 0° 332° (NNW) 2,530 10.5 -9.1°
